Weather History for Watford City, ND

Change the Weather History Date:

Wednesday, January 15, 2014

  Actual Average (KISN) Record (KISN)
Temperature  
Mean Temperature 31 °F 11 °F  
Max Temperature 41 °F 22 °F 47 °F (1914)
Min Temperature 21 °F 0 °F -42 °F (1907)
Degree Days  
Heating Degree Days 34 54  
Month to date heating degree days 820  
Since 1 July heating degree days 4567  
Cooling Degree Days 0 0  
Month to date cooling degree days 0  
Year to date cooling degree days 0  
Moisture  
Dew Point 26 °F    
Average Humidity 71    
Maximum Humidity 87    
Minimum Humidity 60    
Precipitation  
Precipitation 0.00 in 0.02 in 0.40 in (1943)
Month to date precipitation 0.32  
Year to date precipitation 0.32  
Sea Level Pressure  
Sea Level Pressure 29.70 in    
Wind  
Wind Speed 15 mph (West)    
Max Wind Speed 40 mph    
Max Gust Speed 55 mph    
Visibility 10 miles    
Events      
T = Trace of Precipitation, MM = Missing Value Source: NWS Daily Summary

Daily Weather History Graph

Daily Weather History Graph

Search for Another Location

Airport:

Trip Planner

Search our weather history database for the weather conditions in past years. The results will help you decide how hot, cold, wet, or windy it might be!

Date:

Astronomy

Jan. 15, 2014 Rise Set
Actual Time 8:37 AM CST 5:28 PM CST
Civil Twilight 8:02 AM CST 6:03 PM CST
Nautical Twilight 7:23 AM CST 6:41 PM CST
Astronomical Twilight 6:46 AM CST 7:18 PM CST
Moon 5:32 PM CST (1/15) 7:50 AM CST (1/15)
Length of Visible Light 10h 00m
Length of Day
8h 51m
Full, 100% of the Moon is Illuminated
Jan 15
Full
Jan 15
Full
Jan 23
Last Quarter
Jan 30
New
Feb 6
First Quarter

Hourly Weather History & Observations

Time (CST) Temp. Windchill Dew Point Humidity Pressure Visibility Wind Dir Wind Speed Gust Speed Precip Events Conditions
12:15 AM 21.2 °F 10.9 °F 17.6 °F 86% 30.02 in 10.0 mi ESE 9.2 mph - N/A   Scattered Clouds
12:35 AM 21.2 °F 11.7 °F 17.6 °F 86% 29.99 in 10.0 mi ESE 8.1 mph - N/A   Scattered Clouds
12:55 AM 23.0 °F 15.8 °F 19.4 °F 86% 29.98 in 10.0 mi SE 5.8 mph - N/A   Scattered Clouds
1:15 AM 23.0 °F 13.9 °F 19.4 °F 86% 29.95 in 10.0 mi SE 8.1 mph - N/A   Scattered Clouds
1:35 AM 23.0 °F 13.1 °F 19.4 °F 86% 29.93 in 10.0 mi SE 9.2 mph - N/A   Mostly Cloudy
1:55 AM 24.8 °F 17.9 °F 21.2 °F 86% 29.92 in 10.0 mi South 5.8 mph - N/A   Overcast
2:15 AM 26.6 °F 20.0 °F 23.0 °F 86% 29.91 in 10.0 mi SSW 5.8 mph - N/A   Overcast
2:35 AM 26.6 °F 17.5 °F 23.0 °F 86% 29.89 in 10.0 mi SSW 9.2 mph - N/A   Overcast
2:55 AM 28.4 °F 23.3 °F 23.0 °F 80% 29.86 in 10.0 mi North 4.6 mph - N/A   Overcast
3:15 AM 28.4 °F 23.3 °F 24.8 °F 86% 29.86 in 10.0 mi North 4.6 mph - N/A   Overcast
3:35 AM 28.4 °F 20.4 °F 24.8 °F 86% 29.84 in 10.0 mi SSW 8.1 mph - N/A   Overcast
3:55 AM 30.2 °F 23.4 °F 24.8 °F 80% 29.83 in 10.0 mi SSW 6.9 mph - N/A   Mostly Cloudy
4:15 AM 32.0 °F 25.6 °F 26.6 °F 80% 29.81 in 10.0 mi SW 6.9 mph - N/A   Overcast
4:35 AM 32.0 °F 22.5 °F 26.6 °F 80% 29.79 in 10.0 mi SW 12.7 mph - N/A   Overcast
4:55 AM 32.0 °F 23.0 °F 26.6 °F 80% 29.77 in 10.0 mi SW 11.5 mph - N/A   Overcast
5:15 AM 32.0 °F 22.5 °F 28.4 °F 87% 29.76 in 10.0 mi WSW 12.7 mph - N/A   Overcast
5:35 AM 32.0 °F 23.0 °F 28.4 °F 87% 29.74 in 10.0 mi SW 11.5 mph - N/A   Overcast
5:55 AM 32.0 °F 22.1 °F 28.4 °F 87% 29.72 in 10.0 mi SW 13.8 mph - N/A   Overcast
6:15 AM 32.0 °F 22.1 °F 28.4 °F 87% 29.71 in 10.0 mi SW 13.8 mph - N/A   Overcast
6:35 AM 33.8 °F 24.8 °F 28.4 °F 81% 29.69 in 10.0 mi SW 12.7 mph - N/A   Overcast
6:55 AM 35.6 °F 28.0 °F 28.4 °F 75% 29.69 in 10.0 mi WSW 10.4 mph - N/A   Overcast
7:15 AM 35.6 °F 27.1 °F 30.2 °F 81% 29.70 in 10.0 mi WSW 12.7 mph - N/A   Overcast
7:35 AM 35.6 °F 28.0 °F 30.2 °F 81% 29.69 in 10.0 mi SW 10.4 mph - N/A   Overcast
7:55 AM 35.6 °F 28.6 °F 30.2 °F 81% 29.67 in 10.0 mi SW 9.2 mph - N/A   Overcast
8:15 AM 35.6 °F 27.1 °F 28.4 °F 75% 29.65 in 10.0 mi WSW 12.7 mph - N/A   Scattered Clouds
8:35 AM 35.6 °F 26.2 °F 28.4 °F 75% 29.65 in 10.0 mi WSW 15.0 mph - N/A   Clear
8:55 AM 37.4 °F 28.9 °F 28.4 °F 70% 29.64 in 10.0 mi WSW 13.8 mph - N/A   Partly Cloudy
9:15 AM 37.4 °F 29.8 °F 28.4 °F 70% 29.64 in 10.0 mi SW 11.5 mph 19.6 mph N/A   Partly Cloudy
9:35 AM 37.4 °F 27.8 °F 28.4 °F 70% 29.62 in 10.0 mi West 17.3 mph 21.9 mph N/A   Partly Cloudy
9:55 AM 37.4 °F 26.6 °F 28.4 °F 70% 29.62 in 10.0 mi West 21.9 mph 29.9 mph N/A   Clear
10:15 AM 39.2 °F 28.7 °F 28.4 °F 65% 29.62 in 10.0 mi West 23.0 mph 28.8 mph N/A   Clear
10:35 AM 39.2 °F 28.0 °F 28.4 °F 65% 29.62 in 10.0 mi West 26.5 mph 35.7 mph N/A   Clear
10:55 AM 39.2 °F 28.7 °F 28.4 °F 65% 29.62 in 10.0 mi West 23.0 mph 31.1 mph N/A   Scattered Clouds
11:15 AM 39.2 °F 29.0 °F 28.4 °F 65% 29.61 in 10.0 mi West 21.9 mph 28.8 mph N/A   Partly Cloudy
11:35 AM 39.2 °F 28.7 °F 28.4 °F 65% 29.62 in 10.0 mi West 23.0 mph 32.2 mph N/A   Clear
11:55 AM 39.2 °F 29.6 °F 28.4 °F 65% 29.62 in 10.0 mi West 19.6 mph 28.8 mph N/A   Clear
12:15 PM 39.2 °F 30.2 °F 30.2 °F 70% 29.61 in 10.0 mi West 17.3 mph 27.6 mph N/A   Clear
12:35 PM 39.2 °F 29.3 °F 30.2 °F 70% 29.62 in 10.0 mi West 20.7 mph 26.5 mph N/A   Clear
12:55 PM 39.2 °F 29.3 °F 30.2 °F 70% 29.61 in 10.0 mi West 20.7 mph 26.5 mph N/A   Partly Cloudy
1:15 PM 39.2 °F 29.8 °F 30.2 °F 70% 29.60 in 10.0 mi West 18.4 mph 23.0 mph N/A   Partly Cloudy
1:35 PM 39.2 °F 29.3 °F 30.2 °F 70% 29.59 in 10.0 mi West 20.7 mph 28.8 mph N/A   Clear
1:55 PM 39.2 °F 29.3 °F 30.2 °F 70% 29.58 in 10.0 mi West 20.7 mph 26.5 mph N/A   Clear
2:15 PM 41.0 °F 31.6 °F 30.2 °F 65% 29.57 in 10.0 mi West 20.7 mph 26.5 mph N/A   Clear
2:35 PM 41.0 °F 31.9 °F 30.2 °F 65% 29.57 in 10.0 mi West 19.6 mph 28.8 mph N/A   Partly Cloudy
2:55 PM 41.0 °F 31.1 °F 28.4 °F 61% 29.58 in 10.0 mi WNW 23.0 mph 32.2 mph N/A   Clear
3:15 PM 39.2 °F 29.0 °F 28.4 °F 65% 29.60 in 10.0 mi WNW 21.9 mph 31.1 mph N/A   Clear
3:35 PM 39.2 °F 29.6 °F 28.4 °F 65% 29.61 in 10.0 mi WNW 19.6 mph 28.8 mph N/A   Partly Cloudy
3:55 PM 39.2 °F 30.2 °F 28.4 °F 65% 29.62 in 10.0 mi WNW 17.3 mph 25.3 mph N/A   Clear
4:15 PM 39.2 °F 30.2 °F 26.6 °F 61% 29.62 in 10.0 mi WNW 17.3 mph 28.8 mph N/A   Clear
4:35 PM 39.2 °F 29.8 °F 26.6 °F 61% 29.61 in 10.0 mi WNW 18.4 mph 29.9 mph N/A   Partly Cloudy
4:55 PM 37.4 °F 26.6 °F 26.6 °F 65% 29.62 in 10.0 mi WNW 21.9 mph 27.6 mph N/A   Clear
5:15 PM 37.4 °F 25.4 °F 24.8 °F 60% 29.62 in 10.0 mi NW 27.6 mph 34.5 mph N/A   Clear
5:35 PM 37.4 °F 25.9 °F 24.8 °F 60% 29.63 in 10.0 mi WNW 25.3 mph 33.4 mph N/A   Clear
5:55 PM 37.4 °F 26.1 °F 24.8 °F 60% 29.63 in 10.0 mi WNW 24.2 mph 34.5 mph N/A   Clear
6:15 PM 37.4 °F 26.1 °F 24.8 °F 60% 29.63 in 10.0 mi WNW 24.2 mph 38.0 mph N/A   Clear
6:35 PM 35.6 °F 24.8 °F 24.8 °F 65% 29.63 in 10.0 mi WNW 19.6 mph 32.2 mph N/A   Clear
6:55 PM 35.6 °F 23.4 °F 24.8 °F 65% 29.63 in 10.0 mi WNW 25.3 mph 33.4 mph N/A   Clear
7:15 PM 35.6 °F 23.2 °F 23.0 °F 60% 29.63 in 10.0 mi WNW 26.5 mph 38.0 mph N/A   Clear
7:35 PM 35.6 °F 23.4 °F 23.0 °F 60% 29.64 in 10.0 mi WNW 25.3 mph 36.8 mph N/A   Clear
7:55 PM 35.6 °F 23.2 °F 23.0 °F 60% 29.64 in 10.0 mi NW 26.5 mph 35.7 mph N/A   Clear
8:15 PM 35.6 °F 23.2 °F 23.0 °F 60% 29.64 in 10.0 mi NW 26.5 mph 41.4 mph N/A   Clear
8:35 PM 35.6 °F 23.0 °F 23.0 °F 60% 29.65 in 10.0 mi WNW 27.6 mph 44.9 mph N/A   Clear
8:55 PM 35.6 °F 22.5 °F 23.0 °F 60% 29.65 in 10.0 mi NW 29.9 mph 44.9 mph N/A   Partly Cloudy
9:15 PM 33.8 °F 19.6 °F 24.8 °F 70% 29.66 in 10.0 mi NW 32.2 mph 48.3 mph N/A   Partly Cloudy
9:35 PM 35.6 °F 21.7 °F 24.8 °F 65% 29.67 in 10.0 mi NW 34.5 mph 44.9 mph N/A   Mostly Cloudy
9:55 PM 35.6 °F 20.8 °F 23.0 °F 60% 29.67 in 10.0 mi NW 40.3 mph 51.8 mph N/A   Overcast
10:15 PM 35.6 °F 21.3 °F 24.8 °F 65% 29.69 in 10.0 mi NW 36.8 mph 47.2 mph N/A   Mostly Cloudy
10:35 PM 35.6 °F 21.1 °F 23.0 °F 60% 29.70 in 10.0 mi NW 38.0 mph 55.2 mph N/A   Scattered Clouds
10:55 PM 35.6 °F 21.3 °F 23.0 °F 60% 29.71 in 10.0 mi NW 36.8 mph 51.8 mph N/A   Partly Cloudy
11:15 PM 35.6 °F 21.5 °F 23.0 °F 60% 29.72 in 10.0 mi NW 35.7 mph 52.9 mph N/A   Clear
11:35 PM 33.8 °F 18.8 °F 23.0 °F 65% 29.74 in 10.0 mi NW 36.8 mph 46.0 mph N/A   Clear
11:55 PM 33.8 °F 21.3 °F 23.0 °F 65% 29.75 in 10.0 mi NW 24.2 mph 48.3 mph N/A   Clear